Arbor Vitae, WI

8:07 AM CST on January 19, 2018 (GMT -0600)
Lakeland-Lee Memorial

Weather History for KARV - January, 2014

Change the Weather History Date:

Wednesday, January 29, 2014

  Actual Average Record
Temperature  
Mean Temperature 8 °F -  
Max Temperature 22 °F 20 °F 46 °F (1924)
Min Temperature -6 °F -2 °F -33 °F (1951)
Degree Days  
Heating Degree Days 57    
Moisture  
Dew Point -4 °F    
Average Humidity 59    
Maximum Humidity 72    
Minimum Humidity 40    
Precipitation  
Precipitation 0.00 in - - ()
Sea Level Pressure  
Sea Level Pressure 29.73 in    
Wind  
Wind Speed 11 mph (SW)    
Max Wind Speed 18 mph    
Max Gust Speed 24 mph    
Visibility 10 miles    
Events      
Averages and records for this station are not official NWS values.
T = Trace of Precipitation, MM = Missing Value Source: NWS Daily Summary

Daily Weather History Graph

Daily Weather History Graph

Search for Another Location

Airport or City:

Trip Planner

Search our weather history database for the weather conditions in past years. The results will help you decide how hot, cold, wet, or windy it might be!

Date:

Astronomy

Jan. 29, 2014 Rise Set
Actual Time 7:24 AM CST 5:00 PM CST
Civil Twilight 6:52 AM CST 5:32 PM CST
Nautical Twilight 6:16 AM CST 6:08 PM CST
Astronomical Twilight 5:41 AM CST 6:43 PM CST
Moon 6:01 AM CST (1/29) 4:00 PM CST (1/29)
Length of Visible Light 10h 40m
Length of Day
9h 35m
Waning Crescent, 2% of the Moon is Illuminated
Jan 29
Waning Crescent
Jan 30
New
Feb 6
First Quarter
Feb 14
Full
Feb 22
Last Quarter

Hourly Weather History & Observations

Time (CST) Temp. Windchill Dew Point Humidity Pressure Visibility Wind Dir Wind Speed Gust Speed Precip Events Conditions
12:15 AM -3.6 °F -20.7 °F -12.1 °F 67% 29.82 in 10.0 mi West 10.4 mph - N/A   Mostly Cloudy
12:35 AM -3.6 °F -21.7 °F -11.7 °F 68% 29.81 in 10.0 mi WSW 11.5 mph 17.3 mph N/A   Overcast
12:55 AM -3.6 °F -20.7 °F -11.4 °F 69% 29.81 in 10.0 mi WSW 10.4 mph - N/A   Mostly Cloudy
1:15 AM -3.6 °F -21.7 °F -11.2 °F 70% 29.81 in 10.0 mi West 11.5 mph 18.4 mph N/A   Scattered Clouds
1:35 AM -3.6 °F -20.7 °F -11.2 °F 70% 29.81 in 10.0 mi WSW 10.4 mph 16.1 mph N/A   Mostly Cloudy
1:55 AM -3.6 °F -21.7 °F -11.2 °F 70% 29.81 in 10.0 mi West 11.5 mph 18.4 mph N/A   Overcast
2:15 AM -3.6 °F -23.3 °F -11.2 °F 70% 29.81 in 10.0 mi West 13.8 mph 19.6 mph N/A   Overcast
2:35 AM -3.6 °F -21.7 °F -11.2 °F 70% 29.81 in 10.0 mi West 11.5 mph - N/A   Overcast
2:55 AM -3.6 °F -19.7 °F -11.2 °F 70% 29.81 in 10.0 mi West 9.2 mph - N/A   Overcast
3:15 AM -3.6 °F -17.3 °F -11.2 °F 70% 29.80 in 10.0 mi West 6.9 mph - N/A   Mostly Cloudy
3:35 AM -3.6 °F -20.7 °F -11.2 °F 70% 29.81 in 10.0 mi West 10.4 mph - N/A   Scattered Clouds
3:55 AM -3.6 °F -21.7 °F -11.2 °F 70% 29.81 in 10.0 mi West 11.5 mph 17.3 mph N/A   Scattered Clouds
4:15 AM -3.6 °F -20.7 °F -10.7 °F 72% 29.81 in 10.0 mi West 10.4 mph - N/A   Clear
4:35 AM -6.2 °F -22.8 °F -13.2 °F 72% 29.81 in 10.0 mi West 9.2 mph - N/A   Clear
4:55 AM -6.2 °F -20.4 °F -13.2 °F 72% 29.81 in 10.0 mi West 6.9 mph - N/A   Clear
5:15 AM -6.2 °F -20.4 °F -13.2 °F 72% 29.81 in 10.0 mi WSW 6.9 mph - N/A   Clear
5:35 AM -6.2 °F -20.4 °F -13.0 °F 72% 29.81 in 10.0 mi West 6.9 mph - N/A   Clear
5:55 AM -6.2 °F -22.8 °F -13.2 °F 72% 29.81 in 10.0 mi West 9.2 mph - N/A   Clear
6:15 AM -6.2 °F -20.4 °F -13.0 °F 72% 29.81 in 10.0 mi West 6.9 mph - N/A   Clear
6:35 AM -6.2 °F -21.7 °F -13.2 °F 72% 29.81 in 10.0 mi West 8.1 mph - N/A   Clear
6:55 AM -6.2 °F -22.8 °F -13.2 °F 72% 29.81 in 10.0 mi West 9.2 mph - N/A   Clear
7:15 AM -6.2 °F -20.4 °F -13.2 °F 72% 29.82 in 10.0 mi West 6.9 mph - N/A   Clear
7:35 AM -6.2 °F -22.8 °F -13.2 °F 72% 29.81 in 10.0 mi West 9.2 mph - N/A   Clear
7:55 AM -6.0 °F -23.6 °F -13.4 °F 70% 29.82 in 10.0 mi WSW 10.4 mph 16.1 mph N/A   Clear
8:15 AM -3.6 °F -20.7 °F -11.2 °F 70% 29.82 in 10.0 mi West 10.4 mph - N/A   Clear
8:35 AM -3.6 °F -20.7 °F -11.4 °F 69% 29.82 in 10.0 mi West 10.4 mph - N/A   Clear
8:55 AM -1.5 °F -19.0 °F -10.1 °F 67% 29.83 in 10.0 mi West 11.5 mph - N/A   Clear
9:15 AM -1.3 °F -18.7 °F -10.5 °F 65% 29.83 in 10.0 mi West 11.5 mph - N/A   Clear
9:35 AM 1.4 °F -12.5 °F -8.9 °F 62% 29.83 in 10.0 mi West 8.1 mph - N/A   Clear
9:55 AM 1.4 °F -12.5 °F -9.6 °F 60% 29.83 in 10.0 mi WSW 8.1 mph - N/A   Clear
10:15 AM 3.4 °F -7.5 °F -8.7 °F 57% 29.82 in 10.0 mi WSW 5.8 mph - N/A   Clear
10:35 AM 5.4 °F -8.6 °F -7.6 °F 55% 29.82 in 10.0 mi WSW 9.2 mph - N/A   Clear
10:55 AM 7.9 °F -6.4 °F -5.8 °F 54% 29.82 in 10.0 mi West 10.4 mph 18.4 mph N/A   Clear
11:15 AM 9.0 °F -5.1 °F -6.3 °F 50% 29.81 in 10.0 mi WSW 10.4 mph - N/A   Clear
11:35 AM 11.3 °F -2.2 °F -5.1 °F 48% 29.81 in 10.0 mi WSW 10.4 mph - N/A   Clear
11:55 AM 11.3 °F 0.7 °F -6.5 °F 45% 29.81 in 10.0 mi WSW 6.9 mph 17.3 mph N/A   Clear
12:15 PM 13.3 °F -0.5 °F -5.8 °F 42% 29.80 in 10.0 mi WSW 11.5 mph 20.7 mph N/A   Clear
12:35 PM 14.0 °F 2.0 °F -5.8 °F 41% 29.79 in 10.0 mi WSW 9.2 mph 18.4 mph N/A   Clear
12:55 PM 16.7 °F 4.5 °F -3.5 °F 41% 29.78 in 10.0 mi SW 10.4 mph - N/A   Clear
1:15 PM 16.7 °F 5.3 °F -3.3 °F 41% 29.76 in 10.0 mi SW 9.2 mph 13.8 mph N/A   Clear
1:35 PM 17.2 °F 5.2 °F -3.1 °F 41% 29.76 in 10.0 mi SSW 10.4 mph - N/A   Clear
1:55 PM 18.0 °F 6.9 °F -2.4 °F 41% 29.75 in 10.0 mi SSW 9.2 mph - N/A   Clear
2:15 PM 19.2 °F 7.0 °F -1.5 °F 40% 29.74 in 10.0 mi SW 11.5 mph 18.4 mph N/A   Clear
2:35 PM 19.2 °F 7.7 °F -0.9 °F 41% 29.74 in 10.0 mi SSW 10.4 mph 16.1 mph N/A   Clear
2:55 PM 19.2 °F 7.0 °F -1.1 °F 41% 29.72 in 10.0 mi SSW 11.5 mph 18.4 mph N/A   Clear
3:15 PM 19.2 °F 8.4 °F -0.8 °F 42% 29.72 in 10.0 mi SSW 9.2 mph 18.4 mph N/A   Clear
3:35 PM 19.2 °F 7.7 °F 0.1 °F 43% 29.70 in 10.0 mi SSW 10.4 mph 17.3 mph N/A   Clear
3:55 PM 19.2 °F 7.0 °F 0.5 °F 44% 29.69 in 10.0 mi South 11.5 mph - N/A   Clear
4:15 PM 19.2 °F 7.0 °F 1.8 °F 47% 29.69 in 10.0 mi SSW 11.5 mph 18.4 mph N/A   Mostly Cloudy
4:35 PM 18.0 °F 3.6 °F 1.9 °F 50% 29.67 in 10.0 mi SSW 15.0 mph - N/A   Mostly Cloudy
4:55 PM 16.7 °F 1.5 °F 2.3 °F 53% 29.67 in 10.0 mi South 16.1 mph 23.0 mph N/A   Mostly Cloudy
5:15 PM 16.7 °F 2.6 °F 2.3 °F 53% 29.66 in 10.0 mi South 13.8 mph 19.6 mph N/A   Mostly Cloudy
5:35 PM 16.7 °F 3.2 °F 2.7 °F 54% 29.65 in 10.0 mi South 12.7 mph 19.6 mph N/A   Scattered Clouds
5:55 PM 16.7 °F 2.0 °F 2.8 °F 55% 29.63 in 10.0 mi South 15.0 mph 20.7 mph N/A   Clear
6:15 PM 16.7 °F 1.5 °F 3.6 °F 56% 29.63 in 10.0 mi South 16.1 mph 24.2 mph N/A   Clear
6:35 PM 16.7 °F 2.6 °F 3.2 °F 55% 29.62 in 10.0 mi South 13.8 mph 21.9 mph N/A   Clear
6:55 PM 16.7 °F 1.5 °F 3.4 °F 56% 29.62 in 10.0 mi South 16.1 mph 21.9 mph N/A   Mostly Cloudy
7:15 PM 16.7 °F 1.0 °F 3.4 °F 56% 29.61 in 10.0 mi South 17.3 mph 21.9 mph N/A   Overcast
7:35 PM 16.7 °F 3.8 °F 3.4 °F 56% 29.61 in 10.0 mi SSW 11.5 mph 24.2 mph N/A   Overcast
7:55 PM 16.7 °F 2.0 °F 3.2 °F 55% 29.60 in 10.0 mi SSW 15.0 mph 21.9 mph N/A   Mostly Cloudy
8:15 PM 17.2 °F 3.3 °F 4.1 °F 56% 29.60 in 10.0 mi SSW 13.8 mph 19.6 mph N/A   Scattered Clouds
8:35 PM 18.1 °F 3.9 °F 4.8 °F 56% 29.59 in 10.0 mi South 15.0 mph 21.9 mph N/A   Scattered Clouds
8:55 PM 19.2 °F 3.8 °F 6.4 °F 58% 29.58 in 10.0 mi SSW 18.4 mph 24.2 mph N/A   Scattered Clouds
9:15 PM 19.2 °F 5.8 °F 6.8 °F 59% 29.57 in 10.0 mi South 13.8 mph 21.9 mph N/A   Mostly Cloudy
9:35 PM 19.2 °F 5.3 °F 6.8 °F 59% 29.56 in 10.0 mi South 15.0 mph 20.7 mph N/A   Overcast
9:55 PM 19.2 °F 5.8 °F 7.0 °F 59% 29.55 in 10.0 mi SSW 13.8 mph 18.4 mph N/A   Mostly Cloudy
10:15 PM 21.7 °F 9.0 °F 9.3 °F 59% 29.54 in 10.0 mi SSW 13.8 mph 21.9 mph N/A   Scattered Clouds
10:35 PM 21.7 °F 8.0 °F 8.6 °F 57% 29.53 in 10.0 mi SSW 16.1 mph 24.2 mph N/A   Scattered Clouds
10:55 PM 21.7 °F 9.0 °F 9.1 °F 58% 29.53 in 10.0 mi SSW 13.8 mph 21.9 mph N/A   Clear
11:15 PM 22.1 °F 8.9 °F 9.3 °F 58% 29.53 in 10.0 mi SSW 15.0 mph 19.6 mph N/A   Clear
11:35 PM 22.1 °F 10.0 °F 9.5 °F 58% 29.53 in 10.0 mi SSW 12.7 mph 19.6 mph N/A   Clear
11:55 PM 22.1 °F 10.6 °F 9.5 °F 58% 29.52 in 10.0 mi SSW 11.5 mph 16.1 mph N/A   Clear